Dewpoint
-4 -6 -8 -10 -10 -12 -13 -13 -14 -16 -17 -18 -19 -21 -22 -19 -17 -16 -16 -14 -12 -12 -7 -7 10 12 16 16 16 12 12 13 10 11 9 8 7 7 9 10 11 12 11 11 12
-2 -5 -6 -9 -10 -11 -11 -11 -14 -17 -18 -19 -20 -20 -21 -23 -23 -22 -18 -16 -14 -6 -4 -6 8 14 14 14 16 15 12 11 9 10 10 7 6 7 8 8 8 10 9 7 11
2 -3 -6 -8 -10 -11 -11 -15 -16 -17 -18 -19 -20 -21 -21 -22 -22 -5 -3 -9 -14 -5 -3 -3 -4 13 10 11 14 15 14 11 10 10 10 9 8 8 8 8 7 7 6 6 12
4 2 -5 -8 -10 -11 -13 -13 -11 -12 -12 -17 -19 -20 -21 -22 -4 -9 -9 -4 -8 -5 -3 -3 1 8 6 8 10 12 12 13 11 3 6 10 9 8 8 7 2 6 8 7 12
4 4 0 -7 -10 -13 -13 -10 -10 -11 -13 -17 -18 -20 -20 -20 -18 -4 -5 -6 -10 -7 -3 -4 4 2 3 4 5 7 5 1 2 0 -0 3 8 9 8 -2 -2 6 8 10 11
3 3 3 -4 -11 -11 -9 -11 -12 -12 -14 -16 -18 -18 -19 -20 -10 -8 -4 -1 -4 -6 -7 -4 -4 1 5 4 2 1 -1 -2 -2 -2 -0 7 6 4 -6 -8 -5 1 9 11 10
2 3 3 -2 -10 -8 -9 -13 -12 -10 -15 -17 -17 -17 -19 -17 -3 -3 -2 0 1 1 -3 -7 3 4 4 1 -1 -3 -2 -2 -2 -3 -6 2 -6 -4 -8 -8 -1 4 8 11 10
2 2 3 0 -7 -6 -8 -10 -9 -10 -13 -1 -0 -13 -11 -4 -1 -1 -1 -4 -1 2 1 -2 -2 4 2 -2 -6 -4 -3 -1 -3 -7 -8 -8 -5 -6 -8 -8 -6 11 10 11 11
2 2 2 2 -5 -4 -7 -10 -8 -6 -5 -5 -2 -1 -2 -5 -7 -8 -7 -8 -8 -1 1 1 1 -1 -8 -7 -6 -6 -0 -4 -5 -7 -7 -7 -5 -6 -9 -9 -9 3 11 12 12
2 2 2 3 -5 -5 -7 -10 -9 -3 -6 -6 -0 -2 -3 -4 -7 -9 -10 -10 -13 -10 -0 3 -0 -5 -7 -8 -4 -4 -4 -5 -4 -6 -6 -5 -5 -7 -9 -9 -9 -5 10 12 12
2 1 1 3 -5 -6 -6 -10 -7 -8 -9 -9 -8 -7 -6 -6 -7 -9 -10 -10 -11 -10 -9 -8 -3 -0 -4 -7 -8 -7 -5 -5 -6 -7 -5 -5 -5 -7 -8 -7 -5 -3 9 12 11
3 2 0 1 -5 -4 -5 -6 -3 -4 -7 -7 -7 -8 -11 -10 -8 -10 -10 -9 -8 -7 -8 -7 -6 -8 -8 -7 -7 -7 -6 -5 -5 -5 -4 -6 -7 -8 -7 -3 -1 4 7 9 12
3 3 1 1 -0 2 -5 -5 -4 -4 -6 -6 -6 -8 -9 -9 -9 -10 -10 -9 -8 -7 -6 -6 -7 -7 -7 -6 -5 -5 -4 -4 -4 -7 -9 -8 -6 -5 -1 4 5 4 5 6 8
3 3 2 0 3 2 -3 -6 -5 -4 -2 -4 -6 -8 -9 -10 -10 -10 -10 -9 -8 -8 -6 -6 -8 -7 -5 -5 -6 -6 -5 -4 -6 -8 -6 -8 -4 -6 4 6 6 6 5 4 5
2 1 2 2 2 2 -4 -11 -3 -4 -1 -5 -8 -9 -10 -10 -10 -10 -10 -9 -9 -9 -8 -6 -7 -5 -4 -5 -8 -5 -9 -8 -9 -8 -7 -6 -5 -4 6 7 7 7 6 4 3
-0 -1 -0 2 2 2 -9 -5 -3 -1 1 -6 -9 -9 -10 -10 -10 -10 -9 -9 -8 -7 -7 -7 -7 -6 -5 -6 -5 -5 -6 -4 -5 -5 -2 -5 -3 -3 6 7 8 8 8 8 5
-7 -5 -1 1 2 -1 -7 -3 -1 1 -3 -4 -5 -5 -7 -6 -8 -9 -9 -7 -7 -6 -5 -5 -4 -4 -5 -5 -5 -4 -2 1 -0 1 2 -4 -3 -2 4 8 9 8 8 9 10
-14 -5 1 2 0 -5 -3 -3 0 0 -0 -3 -4 -5 -3 -3 -4 -5 -8 -6 -6 -6 -4 -4 -2 -3 -4 -4 -3 -4 -2 2 4 2 2 -3 -1 5 6 8 9 8 9 11 10
-15 -1 1 -2 -3 -2 -3 -1 -1 -0 -1 0 -3 -3 -2 -3 -4 -3 -4 -4 -3 -5 -4 -1 -1 -3 -3 -4 -4 -3 -1 -3 -0 0 -0 -0 3 4 8 8 8 8 10 10 12
-9 -4 1 -2 -3 -2 -2 -1 -1 -2 -1 -1 -1 -3 -1 -2 -2 -1 -4 -3 -4 -4 -5 -2 -2 -3 -2 -4 -4 -3 -3 3 3 6 7 5 4 4 3 6 7 9 9 6 9
-7 -2 2 -1 -3 -2 1 -0 -1 -1 -1 -0 -1 -1 -2 -1 -2 -1 -2 -2 -1 -4 -4 -3 -3 -2 -3 -2 -1 -0 2 2 2 4 7 7 5 2 5 8 9 9 9 6 8
-1 -0 2 0 -2 -0 0 -1 -0 -0 -1 -1 -1 -2 -2 -1 -0 -0 -1 -0 -1 -2 -3 -3 -2 0 -1 -3 -2 -2 1 1 4 4 4 5 6 1 9 8 10 9 7 7 10
5 4 4 2 1 2 2 2 1 0 0 -0 -0 -2 -3 -2 -1 -0 1 -1 -1 -1 -2 -3 -1 2 1 -0 -1 1 1 0 1 3 5 5 4 0 7 9 9 9 8 8 9
5 4 5 3 3 3 4 3 3 1 0 1 -1 -3 -2 -1 -2 -1 1 0 0 3 -1 -2 -1 -0 3 2 1 3 2 1 1 4 3 4 3 3 5 9 9 9 10 11 12
6 5 6 6 5 4 3 3 3 4 2 -0 -1 -2 -1 -0 2 2 0 0 0 -1 -1 -2 2 1 1 1 2 2 2 1 2 4 6 5 5 6 9 10 10 11 12 12 12
7 7 7 6 5 4 3 4 4 4 2 2 1 -1 -3 -0 0 0 -2 -1 -1 -2 -1 -1 1 1 1 -0 0 1 1 1 2 8 6 8 10 8 9 9 11 11 12 12 12
7 7 7 6 5 5 4 5 5 3 2 1 1 -2 -3 -3 -2 -4 -4 -4 -4 -3 -2 -0 1 1 2 -0 1 2 1 1 7 9 8 8 7 8 10 10 11 10 11 11 12
Wind_Speed
22 21 20 20 18 17 16 15 15 14 12 10 9 9 9 10 13 14 13 6 5 11 9 10 14 16 12 5 2 2 3 3 4 4 3 3 2 4 7 5 3 4 6 9 8
23 22 21 21 19 18 18 17 15 13 12 10 9 8 8 8 10 13 8 9 10 10 12 10 17 15 5 3 2 2 3 6 4 4 5 5 6 4 2 10 6 10 7 17 13
24 23 23 22 21 19 19 16 14 13 12 10 9 8 6 5 5 1 2 8 13 11 9 7 10 13 3 3 5 3 4 4 10 18 14 8 11 19 13 10 23 14 17 10 20
24 24 24 23 22 21 18 15 14 15 14 10 7 5 3 1 4 4 6 5 13 15 14 8 15 7 3 4 6 2 12 11 11 8 8 4 4 4 21 26 27 19 16 21 21
25 25 25 25 23 22 17 16 16 15 12 6 3 2 2 2 3 8 7 6 12 15 13 11 17 6 3 4 2 4 6 9 10 12 12 14 16 8 12 28 26 24 18 23 28
26 26 26 26 25 19 18 20 16 10 8 3 1 2 3 2 6 8 8 9 5 7 10 13 8 11 2 3 1 3 12 13 9 12 11 8 7 1 16 16 13 14 21 31 36
27 27 27 28 23 18 20 21 9 8 6 5 3 2 3 5 8 11 7 4 2 1 3 9 5 4 1 4 3 5 7 10 14 2 3 3 7 6 16 16 13 9 22 33 39
28 27 27 28 20 19 22 13 8 8 7 7 7 3 4 10 9 10 10 6 4 3 2 2 8 4 3 4 6 5 5 5 5 6 5 3 8 13 11 19 10 12 23 33 38
28 28 27 27 20 20 22 8 7 4 6 5 3 4 4 4 4 5 9 8 7 5 3 3 2 2 1 4 5 6 2 3 9 2 2 3 9 8 22 7 13 12 27 34 37
28 28 26 25 18 20 23 6 6 2 6 4 0 3 3 3 3 2 6 8 3 3 6 4 1 3 4 4 2 3 4 4 6 2 7 5 7 9 13 9 14 10 27 32 34
28 27 25 23 15 18 22 7 6 1 8 3 4 3 6 3 3 6 7 10 5 3 3 2 4 5 8 7 3 1 3 5 8 5 5 7 8 11 17 19 20 14 12 24 35
27 27 24 22 12 18 15 11 13 9 9 10 6 11 11 9 2 5 11 7 5 3 4 5 4 9 4 4 5 4 3 6 9 7 6 8 10 6 10 8 11 23 16 8 16
26 26 24 21 9 17 9 13 9 11 2 7 3 1 2 6 2 6 14 6 3 4 5 5 4 1 5 4 5 4 5 5 7 6 4 6 8 7 7 16 21 21 16 19 11
25 26 24 21 6 16 3 12 10 6 4 4 2 2 2 3 3 5 12 5 1 4 8 5 3 3 1 4 5 1 9 2 3 4 1 3 3 3 4 9 10 23 21 20 15
23 25 23 19 15 10 10 10 6 1 4 2 1 2 1 3 4 1 9 8 6 4 5 5 1 2 7 4 3 5 0 5 3 3 2 2 4 7 2 4 6 14 17 15 15
23 25 23 19 14 10 10 8 2 5 1 4 4 4 2 1 2 2 3 6 1 5 1 5 3 1 2 1 2 1 3 6 4 3 2 3 5 6 3 3 3 4 7 9 11
23 24 21 14 8 9 10 3 5 3 4 5 3 5 2 5 5 3 1 3 4 2 4 6 3 4 3 3 3 7 7 4 4 4 5 0 1 8 2 4 4 6 8 9 12
22 19 11 7 5 8 8 5 2 2 3 4 4 3 3 5 4 6 2 3 5 4 3 3 5 4 7 2 1 4 5 5 4 3 5 3 5 4 3 3 6 8 10 10 9
22 10 9 6 8 11 3 4 3 2 3 6 6 4 5 5 1 5 6 2 2 3 5 2 1 4 3 1 4 2 4 3 4 2 1 3 6 4 2 4 7 10 10 13 12
23 9 5 5 8 11 5 2 1 3 4 2 1 2 3 4 4 5 2 5 2 3 2 4 2 1 3 2 6 5 2 3 4 1 3 5 5 4 2 8 7 10 11 15 16
18 5 5 2 8 4 3 3 3 9 5 3 2 1 1 0 1 2 2 1 4 3 5 3 3 5 3 4 1 4 3 6 4 3 2 2 6 6 6 4 7 10 12 17 18
9 3 3 3 5 2 2 2 5 5 5 3 1 4 4 3 0 1 1 0 7 2 2 1 5 2 3 4 2 2 3 4 5 5 2 3 6 3 6 7 9 15 17 18 18
14 6 6 1 2 2 5 4 3 5 5 6 3 4 4 1 2 1 2 4 9 3 4 5 2 2 7 5 5 1 3 4 4 3 6 4 5 3 6 6 9 14 20 22 23
6 4 4 6 6 4 3 3 5 10 1 6 3 3 5 4 4 1 4 3 5 4 7 4 3 6 6 6 4 3 5 5 5 4 4 6 8 11 9 7 11 16 19 22 24
3 1 2 3 4 3 1 3 3 6 6 11 5 5 3 1 1 1 2 4 2 6 4 4 2 5 5 7 4 6 7 6 8 7 6 7 6 9 7 6 9 14 16 19 21
1 2 3 2 4 3 3 2 2 4 2 4 3 6 4 2 2 3 2 1 4 4 2 2 2 5 5 8 9 6 10 10 13 4 6 6 7 5 7 12 11 15 15 18 20
1 1 2 3 2 1 2 1 1 2 4 3 6 4 3 3 11 9 8 5 4 3 4 2 4 2 7 5 3 6 7 6 4 3 4 5 6 4 6 8 14 18 16 19 20
Wind_Direction
7 4 360 357 353 347 341 338 331 324 317 308 296 285 277 275 277 276 272 250 205 200 180 164 158 165 167 192 228 138 67 171 225 189 251 249 230 230 279 281 233 172 106 329 194
7 4 359 356 350 346 341 336 330 326 320 312 299 284 276 275 273 273 260 231 207 187 178 173 168 162 168 194 212 86 109 224 210 206 234 235 227 257 295 265 199 205 226 277 238
5 3 359 354 350 344 339 337 334 329 323 311 298 286 280 284 298 95 183 212 204 174 160 161 173 163 177 168 196 186 209 226 264 264 261 250 245 254 268 271 267 217 236 209 219
2 1 358 353 348 340 342 341 338 336 329 315 293 281 261 185 137 113 81 162 186 177 173 171 163 170 168 195 202 197 247 237 278 314 316 257 254 230 228 254 279 269 230 222 199
1 359 357 353 348 344 345 340 334 331 329 323 301 256 186 183 156 126 85 99 159 182 186 187 176 173 191 199 224 215 268 279 247 278 270 278 269 244 264 290 295 271 225 206 187
359 358 358 354 350 351 344 336 332 334 343 352 56 136 148 128 154 172 103 111 131 186 194 194 209 205 281 254 166 261 293 289 285 259 237 205 265 184 275 327 296 276 213 206 204
357 358 358 355 356 352 343 343 359 4 20 48 53 118 153 116 131 146 138 129 110 57 237 209 163 178 196 302 321 295 319 330 309 10 288 198 310 236 309 335 293 266 219 209 216
356 357 359 357 1 354 348 356 10 21 46 56 41 103 102 146 159 184 188 196 217 239 188 150 197 244 245 303 351 20 51 347 294 345 340 97 271 286 343 333 297 210 208 213 219
354 355 359 358 1 359 354 355 353 15 17 9 57 37 113 172 207 210 221 208 205 239 183 123 186 220 24 69 2 11 263 276 318 195 32 62 291 278 336 346 322 221 212 214 223
350 353 357 358 359 6 1 334 357 2 345 344 350 90 130 123 126 253 182 164 161 177 145 171 135 59 34 72 243 248 303 281 249 274 349 330 268 297 330 327 314 291 212 215 220
347 348 353 356 358 3 7 13 9 342 335 276 282 283 281 196 275 203 196 187 206 179 129 59 83 221 223 207 222 192 207 258 268 255 5 287 290 306 330 6 15 16 233 220 228
344 344 348 354 359 4 3 54 35 333 313 315 291 259 243 261 271 188 182 166 170 159 110 33 227 230 222 194 217 225 253 266 285 303 149 312 298 20 6 358 24 49 42 257 238
344 342 342 353 354 1 12 27 2 338 297 304 330 0 97 183 218 179 181 190 151 145 186 167 228 102 199 219 168 199 184 228 216 3 356 332 326 58 327 17 18 35 40 48 52
345 341 340 348 360 352 8 350 343 329 49 297 351 99 188 216 276 201 205 185 154 192 160 220 275 294 19 243 147 196 212 232 303 37 264 53 269 9 335 7 2 358 2 0 5
344 341 338 338 335 348 340 339 331 278 65 309 17 28 205 192 311 244 206 197 177 181 104 270 270 323 55 322 200 228 81 169 152 190 87 328 84 274 88 19 347 342 348 350 349
339 340 333 329 333 342 345 340 102 44 104 351 351 0 19 271 290 311 188 204 133 135 323 236 254 202 239 188 28 330 118 46 59 89 45 229 133 279 247 185 277 275 315 342 351
335 339 330 324 326 340 346 5 40 114 335 343 345 13 3 337 337 350 248 188 193 49 346 352 353 321 38 72 31 56 50 357 357 8 220 251 66 239 215 203 216 250 296 321 338
338 345 346 3 29 1 349 50 108 68 329 335 12 345 77 4 349 341 36 26 16 75 107 133 327 9 325 123 298 43 118 152 238 215 253 94 233 259 210 186 261 288 308 316 318
343 6 35 66 26 359 358 67 187 46 323 328 324 68 352 343 18 33 16 351 12 166 140 126 229 316 10 0 119 346 39 184 122 18 61 262 289 325 164 289 307 312 317 333 339
344 354 16 11 3 355 69 199 232 251 316 350 279 118 27 333 46 35 15 314 18 46 116 197 15 285 272 40 29 97 163 38 12 324 292 309 296 240 249 265 281 298 312 331 330
344 355 2 336 350 19 109 227 284 303 328 222 258 300 108 82 160 320 309 58 354 356 90 118 103 292 358 18 18 9 21 60 113 125 161 295 277 215 266 280 265 280 303 322 323
357 356 339 356 35 38 109 207 322 300 346 335 232 228 205 182 192 244 115 289 344 297 79 58 131 190 217 313 268 215 124 118 117 273 223 175 262 270 243 267 284 294 299 308 316
341 303 7 293 100 345 316 304 278 346 335 354 323 21 16 284 344 305 24 12 25 71 162 186 27 39 345 359 345 193 180 125 99 72 208 180 260 268 270 288 279 290 306 307 312
348 357 2 64 72 117 30 317 329 349 288 354 295 21 32 38 349 104 347 2 13 47 41 89 126 164 193 215 158 240 229 210 156 150 210 226 276 291 295 262 292 308 312 311 313
350 357 36 325 1 1 355 7 12 360 339 8 29 30 288 241 55 44 329 326 4 11 41 92 220 184 240 236 209 233 251 242 196 214 191 251 221 262 264 294 301 308 306 308 310
325 1 357 279 305 318 10 12 70 333 270 339 40 317 358 201 195 205 196 256 263 334 62 5 249 182 240 246 235 236 247 247 248 232 237 252 261 244 297 321 315 309 310 309 305
253 267 317 317 345 82 212 87 344 1 286 281 328 307 309 356 306 282 245 250 233 210 206 190 156 97 274 261 276 295 234 212 218 215 202 227 237 351 318 328 318 314 309 307 308
Height
1517 1513 1510 1507 1504 1502 1499 1496 1494 1492 1490 1490 1489 1489 1488 1488 1487 1487 1488 1490 1491 1492 1494 1495 1497 1499 1501 1503 1503 1504 1511 1518 1508 1505 1498 1494 1493 1489 1487 1489 1491 1492 1494 1494 1495
1517 1513 1510 1507 1504 1500 1497 1494 1491 1489 1488 1487 1486 1486 1486 1486 1486 1484 1487 1486 1488 1491 1493 1495 1496 1499 1502 1503 1503 1504 1514 1506 1496 1495 1495 1492 1492 1488 1487 1486 1489 1490 1487 1488 1492
1517 1513 1510 1506 1503 1499 1496 1493 1490 1487 1486 1484 1484 1483 1484 1484 1484 1483 1483 1483 1486 1491 1494 1495 1496 1498 1501 1502 1503 1502 1507 1496 1493 1491 1492 1492 1490 1489 1486 1483 1480 1484 1484 1483 1481
1517 1513 1509 1505 1501 1497 1493 1491 1488 1486 1483 1482 1481 1481 1482 1483 1488 1483 1483 1483 1485 1489 1493 1494 1497 1498 1500 1502 1500 1503 1495 1494 1490 1488 1487 1487 1484 1483 1482 1477 1475 1477 1480 1480 1484
1516 1512 1508 1504 1499 1495 1491 1489 1486 1483 1481 1480 1479 1480 1481 1482 1483 1484 1484 1485 1486 1489 1491 1493 1495 1497 1499 1498 1498 1498 1492 1490 1488 1488 1487 1485 1481 1481 1478 1470 1468 1471 1476 1479 1481
1516 1511 1507 1502 1497 1493 1490 1487 1484 1482 1480 1479 1479 1479 1481 1483 1482 1484 1485 1486 1488 1489 1491 1492 1494 1496 1497 1497 1497 1494 1490 1485 1483 1483 1482 1482 1478 1478 1468 1468 1464 1464 1469 1469 1472
1515 1510 1506 1501 1496 1492 1489 1485 1482 1481 1480 1479 1479 1479 1480 1483 1483 1485 1486 1487 1489 1490 1491 1492 1494 1496 1497 1495 1495 1493 1493 1485 1478 1480 1480 1480 1480 1476 1468 1465 1463 1464 1463 1464 1463
1514 1509 1505 1500 1496 1492 1488 1484 1483 1482 1481 1480 1480 1480 1480 1482 1484 1485 1486 1487 1488 1490 1492 1493 1494 1496 1495 1494 1494 1497 1499 1507 1483 1481 1478 1481 1492 1466 1465 1463 1462 1463 1461 1461 1462
1513 1509 1505 1500 1496 1492 1487 1484 1483 1482 1481 1481 1481 1480 1481 1483 1484 1485 1486 1488 1488 1490 1492 1493 1495 1495 1495 1500 1509 1508 1514 1506 1495 1481 1482 1482 1484 1465 1463 1461 1458 1459 1460 1459 1462
1512 1508 1504 1500 1496 1492 1487 1483 1482 1482 1481 1480 1481 1483 1483 1483 1483 1484 1486 1488 1489 1489 1492 1494 1494 1498 1502 1508 1525 1511 1510 1504 1504 1485 1482 1482 1480 1466 1465 1463 1459 1457 1456 1458 1460
1511 1507 1504 1500 1495 1493 1489 1484 1485 1484 1480 1480 1481 1480 1480 1482 1483 1483 1485 1487 1489 1490 1494 1493 1502 1509 1499 1499 1497 1500 1505 1506 1492 1482 1486 1483 1481 1472 1466 1462 1461 1459 1459 1460 1457
1510 1506 1503 1499 1496 1494 1491 1489 1492 1494 1484 1478 1477 1477 1478 1480 1482 1483 1485 1487 1488 1493 1492 1500 1506 1491 1492 1494 1498 1501 1505 1506 1491 1483 1488 1485 1481 1480 1472 1470 1468 1464 1461 1461 1464
1509 1504 1501 1499 1496 1495 1492 1493 1492 1491 1490 1478 1476 1476 1478 1480 1480 1481 1484 1485 1486 1492 1494 1500 1491 1486 1488 1490 1498 1501 1504 1499 1495 1488 1486 1488 1486 1490 1478 1471 1467 1465 1466 1466 1466
1508 1503 1500 1497 1497 1494 1493 1492 1491 1491 1500 1482 1478 1478 1479 1479 1479 1478 1480 1483 1485 1488 1493 1494 1486 1485 1486 1490 1490 1495 1486 1487 1489 1496 1509 1493 1518 1488 1487 1480 1473 1468 1464 1463 1465
1507 1502 1499 1496 1496 1494 1494 1491 1490 1491 1521 1481 1478 1479 1478 1480 1479 1477 1478 1479 1483 1485 1489 1493 1486 1485 1488 1487 1484 1489 1482 1483 1485 1499 1500 1499 1514 1494 1489 1487 1484 1476 1471 1468 1466
1506 1502 1498 1495 1493 1493 1491 1490 1490 1503 1512 1484 1479 1479 1479 1478 1478 1477 1477 1479 1479 1482 1485 1486 1482 1483 1482 1481 1482 1480 1485 1495 1502 1508 1522 1502 1510 1505 1492 1485 1484 1480 1477 1472 1468
1504 1500 1495 1492 1492 1491 1490 1489 1504 1514 1489 1492 1487 1483 1483 1484 1480 1479 1480 1482 1489 1495 1498 1490 1487 1483 1482 1486 1485 1487 1501 1529 1522 1529 1526 1503 1510 1495 1482 1481 1481 1479 1476 1473 1470
1501 1498 1493 1492 1491 1490 1489 1491 1506 1497 1496 1488 1487 1485 1488 1487 1485 1485 1483 1491 1485 1487 1503 1506 1512 1489 1484 1485 1490 1495 1501 1529 1532 1538 1523 1510 1514 1492 1479 1479 1478 1477 1476 1474 1472
1499 1496 1494 1493 1492 1491 1490 1509 1505 1499 1496 1496 1491 1495 1496 1489 1488 1488 1493 1494 1488 1485 1500 1505 1503 1488 1486 1484 1487 1494 1510 1502 1520 1526 1529 1517 1497 1481 1480 1479 1477 1476 1475 1472 1471
1498 1495 1495 1494 1493 1491 1493 1506 1501 1496 1494 1493 1497 1492 1498 1495 1494 1495 1494 1489 1487 1485 1485 1496 1506 1492 1487 1485 1487 1492 1495 1513 1524 1527 1525 1520 1512 1501 1485 1482 1477 1474 1471 1470 1469
1499 1496 1496 1494 1494 1493 1506 1506 1499 1493 1493 1494 1493 1494 1494 1494 1493 1495 1494 1490 1487 1485 1485 1492 1502 1501 1492 1496 1500 1502 1506 1513 1522 1529 1535 1537 1517 1486 1482 1478 1477 1473 1469 1467 1464
1500 1499 1496 1495 1497 1502 1505 1501 1498 1494 1492 1492 1491 1492 1491 1491 1493 1493 1494 1491 1486 1486 1489 1493 1507 1514 1500 1495 1495 1496 1500 1510 1527 1525 1528 1530 1519 1477 1477 1475 1472 1469 1466 1465 1463
1502 1499 1497 1496 1506 1508 1502 1500 1498 1496 1495 1493 1493 1491 1490 1491 1497 1493 1491 1489 1487 1487 1489 1491 1509 1525 1515 1507 1497 1498 1498 1503 1514 1521 1522 1527 1512 1475 1475 1473 1471 1468 1465 1462 1461
1506 1505 1499 1498 1502 1504 1505 1503 1501 1497 1496 1495 1493 1490 1491 1495 1495 1495 1495 1490 1489 1489 1488 1489 1508 1509 1523 1509 1502 1507 1499 1498 1506 1522 1515 1512 1495 1482 1475 1472 1469 1467 1464 1461 1459
1507 1507 1508 1509 1505 1505 1505 1505 1504 1504 1498 1496 1495 1497 1498 1498 1499 1498 1495 1493 1490 1490 1489 1492 1503 1504 1501 1499 1498 1497 1495 1493 1500 1496 1501 1488 1493 1479 1472 1470 1468 1467 1464 1461 1458
1508 1509 1508 1507 1506 1506 1506 1509 1506 1505 1503 1500 1501 1499 1497 1497 1495 1499 1496 1496 1494 1491 1492 1495 1502 1502 1501 1493 1494 1495 1488 1486 1483 1482 1486 1484 1483 1470 1469 1468 1466 1464 1462 1459 1455
1508 1508 1508 1507 1507 1507 1507 1507 1506 1505 1500 1500 1500 1498 1496 1496 1495 1491 1490 1489 1489 1491 1494 1495 1501 1506 1501 1492 1493 1500 1484 1481 1477 1475 1476 1483 1474 1470 1467 1467 1464 1461 1459 1456 1452